Time,TemperatureF,DewpointF,PressureIn,WindDirection,WindDirectionDegrees,WindSpeedMPH,WindSpeedGustMPH,Humidity,HourlyPrecipIn,Conditions,Clouds,dailyrainin,SoftwareType,DateUTC
2013-08-06 00:01:00,76.9,63.4,30.07,SE,130,7.0,14.0,63,0.00,,---,0.00,VWS V13.00,2013-08-06 04:01:00,
2013-08-06 00:06:00,76.8,63.3,30.08,SE,126,9.0,13.0,63,0.00,,---,0.00,VWS V13.00,2013-08-06 04:06:00,
2013-08-06 00:11:00,76.9,63.4,30.07,ESE,111,6.0,14.0,63,0.00,,---,0.00,VWS V13.00,2013-08-06 04:11:00,
2013-08-06 00:16:00,76.9,63.8,30.07,ESE,103,7.0,14.0,64,0.00,,---,0.00,VWS V13.00,2013-08-06 04:16:00,
2013-08-06 00:21:00,76.9,63.8,30.07,SE,132,8.0,14.0,64,0.00,,---,0.00,VWS V13.00,2013-08-06 04:21:00,
2013-08-06 00:26:00,76.9,63.8,30.07,ESE,103,6.0,14.0,64,0.00,,---,0.00,VWS V13.00,2013-08-06 04:26:00,
2013-08-06 00:31:00,76.8,63.7,30.07,SE,136,9.0,10.0,64,0.00,,---,0.00,VWS V13.00,2013-08-06 04:31:00,
2013-08-06 00:36:00,76.7,63.6,30.07,SE,125,9.0,14.0,64,0.00,,---,0.00,VWS V13.00,2013-08-06 04:36:00,
2013-08-06 00:41:00,76.7,63.6,30.07,SE,124,9.0,14.0,64,0.00,,---,0.00,VWS V13.00,2013-08-06 04:41:00,
2013-08-06 00:46:00,76.7,63.6,30.07,East,99,7.0,14.0,64,0.00,,---,0.00,VWS V13.00,2013-08-06 04:46:00,
2013-08-06 00:51:00,76.7,63.6,30.06,ESE,111,9.0,14.0,64,0.00,,---,0.00,VWS V13.00,2013-08-06 04:51:00,
2013-08-06 00:56:00,76.7,63.6,30.07,SSE,161,6.0,14.0,64,0.00,,---,0.00,VWS V13.00,2013-08-06 04:56:00,
2013-08-06 01:01:00,76.8,63.7,30.07,ESE,123,8.0,9.0,64,0.00,,---,0.00,VWS V13.00,2013-08-06 05:01:00,
2013-08-06 01:06:00,76.9,64.2,30.07,ESE,109,6.0,13.0,65,0.00,,---,0.00,VWS V13.00,2013-08-06 05:06:00,
2013-08-06 01:11:00,76.9,64.2,30.06,ESE,111,13.0,13.0,65,0.00,,---,0.00,VWS V13.00,2013-08-06 05:11:00,
2013-08-06 01:16:00,76.9,64.2,30.06,SE,126,6.0,14.0,65,0.00,,---,0.00,VWS V13.00,2013-08-06 05:16:00,
2013-08-06 01:21:00,76.9,64.2,30.06,SE,126,5.0,14.0,65,0.00,,---,0.00,VWS V13.00,2013-08-06 05:21:00,
2013-08-06 01:26:00,76.9,64.2,30.06,ESE,119,5.0,14.0,65,0.00,,---,0.00,VWS V13.00,2013-08-06 05:26:00,
2013-08-06 01:31:00,77.0,64.3,30.06,SE,132,5.0,8.0,65,0.00,,---,0.00,VWS V13.00,2013-08-06 05:31:00,
2013-08-06 01:36:00,76.9,64.7,30.06,SE,127,6.0,11.0,66,0.00,,---,0.00,VWS V13.00,2013-08-06 05:36:00,
2013-08-06 01:41:00,76.9,64.2,30.06,ESE,116,7.0,11.0,65,0.00,,---,0.00,VWS V13.00,2013-08-06 05:41:00,
2013-08-06 01:46:00,76.8,64.2,30.06,ESE,120,7.0,11.0,65,0.00,,---,0.00,VWS V13.00,2013-08-06 05:46:00,
2013-08-06 01:51:00,76.8,64.6,30.06,East,89,7.0,12.0,66,0.00,,---,0.00,VWS V13.00,2013-08-06 05:51:00,
2013-08-06 01:56:00,76.7,64.5,30.05,ESE,111,6.0,13.0,66,0.00,,---,0.00,VWS V13.00,2013-08-06 05:56:00,
2013-08-06 02:01:00,76.8,64.6,30.05,SE,128,7.0,8.0,66,0.00,,---,0.00,VWS V13.00,2013-08-06 06:01:00,
2013-08-06 02:06:00,76.9,64.7,30.05,SE,131,7.0,11.0,66,0.00,,---,0.00,VWS V13.00,2013-08-06 06:06:00,
2013-08-06 02:11:00,76.9,64.7,30.05,SE,133,8.0,14.0,66,0.00,,---,0.00,VWS V13.00,2013-08-06 06:11:00,
2013-08-06 02:16:00,76.9,64.7,30.05,SE,141,8.0,14.0,66,0.00,,---,0.00,VWS V13.00,2013-08-06 06:16:00,
2013-08-06 02:21:00,76.9,64.7,30.05,SE,131,8.0,14.0,66,0.00,,---,0.00,VWS V13.00,2013-08-06 06:21:00,
2013-08-06 02:26:00,76.9,64.7,30.04,SE,138,7.0,14.0,66,0.00,,---,0.00,VWS V13.00,2013-08-06 06:26:00,
2013-08-06 02:31:00,76.8,64.6,30.04,SE,126,5.0,7.0,66,0.00,,---,0.00,VWS V13.00,2013-08-06 06:31:00,
2013-08-06 02:36:00,76.8,64.6,30.04,SE,134,7.0,13.0,66,0.00,,---,0.00,VWS V13.00,2013-08-06 06:36:00,
2013-08-06 02:41:00,76.8,65.0,30.04,ESE,108,6.0,13.0,67,0.00,,---,0.00,VWS V13.00,2013-08-06 06:41:00,
2013-08-06 02:46:00,76.8,65.0,30.04,East,86,4.0,13.0,67,0.00,,---,0.00,VWS V13.00,2013-08-06 06:46:00,
2013-08-06 02:51:00,76.7,64.9,30.03,ESE,111,5.0,13.0,67,0.00,,---,0.00,VWS V13.00,2013-08-06 06:51:00,
2013-08-06 02:56:00,76.6,64.8,30.04,SE,142,7.0,13.0,67,0.00,,---,0.00,VWS V13.00,2013-08-06 06:56:00,
2013-08-06 03:01:00,76.6,64.8,30.04,SE,141,4.0,7.0,67,0.00,,---,0.00,VWS V13.00,2013-08-06 07:01:00,
2013-08-06 03:06:00,76.6,64.8,30.03,SE,126,7.0,9.0,67,0.00,,---,0.00,VWS V13.00,2013-08-06 07:06:00,
2013-08-06 03:11:00,76.5,64.7,30.03,SE,124,4.0,11.0,67,0.00,,---,0.00,VWS V13.00,2013-08-06 07:11:00,
2013-08-06 03:16:00,76.4,64.6,30.03,ESE,121,6.0,11.0,67,0.00,,---,0.00,VWS V13.00,2013-08-06 07:16:00,
2013-08-06 03:21:00,76.3,64.6,30.03,ESE,123,7.0,11.0,67,0.00,,---,0.00,VWS V13.00,2013-08-06 07:21:00,
2013-08-06 03:26:00,76.3,64.6,30.03,ESE,111,7.0,11.0,67,0.00,,---,0.00,VWS V13.00,2013-08-06 07:26:00,
2013-08-06 03:31:00,76.3,64.6,30.03,East,93,4.0,6.0,67,0.00,,---,0.00,VWS V13.00,2013-08-06 07:31:00,
2013-08-06 03:36:00,76.3,64.6,30.03,SE,131,5.0,7.0,67,0.00,,---,0.00,VWS V13.00,2013-08-06 07:36:00,
2013-08-06 03:41:00,76.1,63.9,30.02,ESE,113,5.0,8.0,66,0.00,,---,0.00,VWS V13.00,2013-08-06 07:41:00,
2013-08-06 03:46:00,76.0,63.8,30.02,ESE,117,7.0,8.0,66,0.00,,---,0.00,VWS V13.00,2013-08-06 07:46:00,
2013-08-06 03:51:00,76.0,63.8,30.02,SE,124,4.0,8.0,66,0.00,,---,0.00,VWS V13.00,2013-08-06 07:51:00,
2013-08-06 03:56:00,75.9,63.7,30.02,SE,132,6.0,8.0,66,0.00,,---,0.00,VWS V13.00,2013-08-06 07:56:00,
2013-08-06 04:01:00,75.8,63.6,30.02,ESE,119,4.0,5.0,66,0.00,,---,0.00,VWS V13.00,2013-08-06 08:01:00,
2013-08-06 04:06:00,75.8,63.6,30.02,SE,136,0.0,9.0,66,0.00,,---,0.00,VWS V13.00,2013-08-06 08:06:00,
2013-08-06 04:11:00,75.8,63.6,30.03,ESE,109,1.0,9.0,66,0.00,,---,0.00,VWS V13.00,2013-08-06 08:11:00,
2013-08-06 04:16:00,75.8,63.6,30.03,ESE,123,0.0,9.0,66,0.00,,---,0.00,VWS V13.00,2013-08-06 08:16:00,
2013-08-06 04:21:00,75.8,63.6,30.03,SE,132,2.0,9.0,66,0.00,,---,0.00,VWS V13.00,2013-08-06 08:21:00,
2013-08-06 04:26:00,75.8,64.1,30.03,ESE,119,5.0,9.0,67,0.00,,---,0.00,VWS V13.00,2013-08-06 08:26:00,
2013-08-06 04:31:00,75.7,63.5,30.02,SE,128,1.0,2.0,66,0.00,,---,0.00,VWS V13.00,2013-08-06 08:31:00,
2013-08-06 04:36:00,75.7,63.5,30.02,ESE,112,2.0,6.0,66,0.00,,---,0.00,VWS V13.00,2013-08-06 08:36:00,
2013-08-06 04:41:00,75.7,63.5,30.02,SE,128,0.0,6.0,66,0.00,,---,0.00,VWS V13.00,2013-08-06 08:41:00,
2013-08-06 04:46:00,75.8,63.6,30.02,SE,137,1.0,6.0,66,0.00,,---,0.00,VWS V13.00,2013-08-06 08:46:00,
2013-08-06 04:51:00,75.7,64.0,30.02,ESE,121,4.0,6.0,67,0.00,,---,0.00,VWS V13.00,2013-08-06 08:51:00,
2013-08-06 04:56:00,75.6,63.9,30.02,SE,127,0.0,6.0,67,0.00,,---,0.00,VWS V13.00,2013-08-06 08:56:00,
2013-08-06 05:01:00,75.4,63.7,30.02,SSE,147,1.0,6.0,67,0.00,,---,0.00,VWS V13.00,2013-08-06 09:01:00,
2013-08-06 05:06:00,75.3,63.6,30.02,SSE,150,0.0,7.0,67,0.00,,---,0.00,VWS V13.00,2013-08-06 09:06:00,
2013-08-06 05:11:00,75.3,63.6,30.02,ESE,122,2.0,7.0,67,0.00,,---,0.00,VWS V13.00,2013-08-06 09:11:00,
2013-08-06 05:16:00,75.2,63.5,30.02,SE,134,7.0,8.0,67,0.00,,---,0.00,VWS V13.00,2013-08-06 09:16:00,
2013-08-06 05:21:00,75.3,63.6,30.02,SE,134,4.0,8.0,67,0.00,,---,0.00,VWS V13.00,2013-08-06 09:21:00,
2013-08-06 05:26:00,75.4,63.7,30.02,SE,132,4.0,8.0,67,0.00,,---,0.00,VWS V13.00,2013-08-06 09:26:00,
2013-08-06 05:31:00,75.5,63.8,30.02,SE,142,1.0,8.0,67,0.00,,---,0.00,VWS V13.00,2013-08-06 09:31:00,
2013-08-06 05:36:00,75.5,63.8,30.02,SE,133,0.0,4.0,67,0.00,,---,0.00,VWS V13.00,2013-08-06 09:36:00,
2013-08-06 05:41:00,75.3,64.0,30.02,SSE,167,5.0,5.0,68,0.00,,---,0.00,VWS V13.00,2013-08-06 09:41:00,
2013-08-06 05:46:00,75.1,63.8,30.03,South,169,0.0,5.0,68,0.00,,---,0.00,VWS V13.00,2013-08-06 09:46:00,
2013-08-06 05:51:00,75.0,63.7,30.03,ESE,123,0.0,5.0,68,0.00,,---,0.00,VWS V13.00,2013-08-06 09:51:00,
2013-08-06 05:56:00,74.8,63.5,30.03,SSE,159,0.0,5.0,68,0.00,,---,0.00,VWS V13.00,2013-08-06 09:56:00,
2013-08-06 06:01:00,74.5,63.3,30.03,SSE,160,0.0,5.0,68,0.00,,---,0.00,VWS V13.00,2013-08-06 10:01:00,
2013-08-06 06:06:00,74.2,63.0,30.03,SSE,160,0.0,0.0,68,0.00,,---,0.00,VWS V13.00,2013-08-06 10:06:00,
2013-08-06 06:11:00,73.9,62.7,30.03,SSE,160,0.0,0.0,68,0.00,,---,0.00,VWS V13.00,2013-08-06 10:11:00,
2013-08-06 06:16:00,73.7,62.9,30.03,North,355,0.0,3.0,69,0.00,,---,0.00,VWS V13.00,2013-08-06 10:16:00,
2013-08-06 06:21:00,73.5,62.7,30.03,North,355,2.0,3.0,69,0.00,,---,0.00,VWS V13.00,2013-08-06 10:21:00,
2013-08-06 06:26:00,73.3,62.5,30.03,North,355,0.0,4.0,69,0.00,,---,0.00,VWS V13.00,2013-08-06 10:26:00,
2013-08-06 06:31:00,73.2,62.4,30.04,North,355,0.0,4.0,69,0.00,,---,0.00,VWS V13.00,2013-08-06 10:31:00,
2013-08-06 06:36:00,73.1,62.7,30.04,North,355,0.0,0.0,70,0.00,,---,0.00,VWS V13.00,2013-08-06 10:36:00,
2013-08-06 06:41:00,72.9,62.5,30.04,North,355,0.0,1.0,70,0.00,,---,0.00,VWS V13.00,2013-08-06 10:41:00,
2013-08-06 06:46:00,72.8,62.5,30.04,North,355,0.0,2.0,70,0.00,,---,0.00,VWS V13.00,2013-08-06 10:46:00,
2013-08-06 06:51:00,72.7,62.4,30.04,North,355,0.0,2.0,70,0.00,,---,0.00,VWS V13.00,2013-08-06 10:51:00,
2013-08-06 06:56:00,72.7,62.4,30.04,North,355,0.0,2.0,70,0.00,,---,0.00,VWS V13.00,2013-08-06 10:56:00,
2013-08-06 07:01:00,72.6,62.7,30.04,North,355,0.0,3.0,71,0.00,,---,0.00,VWS V13.00,2013-08-06 11:01:00,
2013-08-06 07:06:00,72.5,62.6,30.05,North,355,0.0,1.0,71,0.00,,---,0.00,VWS V13.00,2013-08-06 11:06:00,
2013-08-06 07:11:00,72.5,62.6,30.05,North,355,0.0,3.0,71,0.00,,---,0.00,VWS V13.00,2013-08-06 11:11:00,
2013-08-06 07:16:00,72.5,62.6,30.05,North,355,1.0,4.0,71,0.00,,---,0.00,VWS V13.00,2013-08-06 11:16:00,
2013-08-06 07:21:00,72.6,62.7,30.06,North,355,1.0,4.0,71,0.00,,---,0.00,VWS V13.00,2013-08-06 11:21:00,
2013-08-06 07:26:00,72.5,62.6,30.06,North,355,2.0,4.0,71,0.00,,---,0.00,VWS V13.00,2013-08-06 11:26:00,
2013-08-06 07:31:00,72.8,62.9,30.06,North,355,0.0,4.0,71,0.00,,---,0.00,VWS V13.00,2013-08-06 11:31:00,
2013-08-06 07:36:00,72.9,63.3,30.06,North,355,0.0,4.0,72,0.00,,---,0.00,VWS V13.00,2013-08-06 11:36:00,
2013-08-06 07:41:00,73.1,63.5,30.07,North,355,0.0,4.0,72,0.00,,---,0.00,VWS V13.00,2013-08-06 11:41:00,
2013-08-06 07:46:00,73.3,63.7,30.07,North,355,0.0,4.0,72,0.00,,---,0.00,VWS V13.00,2013-08-06 11:46:00,
2013-08-06 07:51:00,73.5,63.9,30.07,North,355,2.0,4.0,72,0.00,,---,0.00,VWS V13.00,2013-08-06 11:51:00,
2013-08-06 07:56:00,73.7,64.1,30.07,North,355,0.0,4.0,72,0.00,,---,0.00,VWS V13.00,2013-08-06 11:56:00,
2013-08-06 08:01:00,73.9,64.3,30.07,North,355,0.0,4.0,72,0.00,,---,0.00,VWS V13.00,2013-08-06 12:01:00,
2013-08-06 08:06:00,74.2,64.6,30.07,North,11,2.0,3.0,72,0.00,,---,0.00,VWS V13.00,2013-08-06 12:06:00,
2013-08-06 08:11:00,74.4,64.8,30.06,NNE,30,0.0,5.0,72,0.00,,---,0.00,VWS V13.00,2013-08-06 12:11:00,
2013-08-06 08:16:00,74.5,64.9,30.07,NE,55,1.0,5.0,72,0.00,,---,0.00,VWS V13.00,2013-08-06 12:16:00,
2013-08-06 08:21:00,74.8,65.2,30.07,NNE,27,2.0,5.0,72,0.00,,---,0.00,VWS V13.00,2013-08-06 12:21:00,
2013-08-06 08:26:00,75.1,65.5,30.07,NNE,24,1.0,5.0,72,0.00,,---,0.00,VWS V13.00,2013-08-06 12:26:00,
2013-08-06 08:31:00,75.4,65.8,30.07,NNE,18,1.0,5.0,72,0.00,,---,0.00,VWS V13.00,2013-08-06 12:31:00,
2013-08-06 08:36:00,75.7,66.0,30.07,ENE,67,1.0,3.0,72,0.00,,---,0.00,VWS V13.00,2013-08-06 12:36:00,
2013-08-06 08:41:00,76.0,66.3,30.07,ENE,67,1.0,4.0,72,0.00,,---,0.00,VWS V13.00,2013-08-06 12:41:00,
2013-08-06 08:46:00,76.2,66.5,30.07,NNE,30,4.0,4.0,72,0.00,,---,0.00,VWS V13.00,2013-08-06 12:46:00,
2013-08-06 08:51:00,76.4,66.7,30.07,NE,41,0.0,4.0,72,0.00,,---,0.00,VWS V13.00,2013-08-06 12:51:00,
2013-08-06 08:56:00,76.6,66.9,30.07,NE,42,0.0,4.0,72,0.00,,---,0.00,VWS V13.00,2013-08-06 12:56:00,
2013-08-06 09:01:00,76.9,67.2,30.07,East,94,0.0,4.0,72,0.00,,---,0.00,VWS V13.00,2013-08-06 13:01:00,
2013-08-06 09:06:00,77.3,67.6,30.07,East,94,2.0,4.0,72,0.00,,---,0.00,VWS V13.00,2013-08-06 13:06:00,
2013-08-06 09:11:00,77.7,68.0,30.07,ESE,109,5.0,5.0,72,0.00,,---,0.00,VWS V13.00,2013-08-06 13:11:00,
2013-08-06 09:16:00,78.3,68.5,30.07,ESE,109,0.0,7.0,72,0.00,,---,0.00,VWS V13.00,2013-08-06 13:16:00,
2013-08-06 09:21:00,78.7,68.9,30.07,East,101,4.0,7.0,72,0.00,,---,0.00,VWS V13.00,2013-08-06 13:21:00,
2013-08-06 09:26:00,78.7,68.5,30.07,SE,124,5.0,7.0,71,0.00,,---,0.00,VWS V13.00,2013-08-06 13:26:00,
2013-08-06 09:31:00,78.9,68.7,30.07,ESE,123,5.0,7.0,71,0.00,,---,0.00,VWS V13.00,2013-08-06 13:31:00,
2013-08-06 09:36:00,79.1,68.9,30.07,East,98,2.0,6.0,71,0.00,,---,0.00,VWS V13.00,2013-08-06 13:36:00,
2013-08-06 09:41:00,79.3,69.1,30.07,East,94,1.0,6.0,71,0.00,,---,0.00,VWS V13.00,2013-08-06 13:41:00,
2013-08-06 09:46:00,79.8,69.6,30.07,SE,126,6.0,7.0,71,0.00,,---,0.00,VWS V13.00,2013-08-06 13:46:00,
2013-08-06 09:51:00,80.1,69.9,30.07,SE,132,1.0,7.0,71,0.00,,---,0.00,VWS V13.00,2013-08-06 13:51:00,
2013-08-06 09:56:00,80.6,70.3,30.07,SE,125,5.0,8.0,71,0.00,,---,0.00,VWS V13.00,2013-08-06 13:56:00,
2013-08-06 10:01:00,81.0,70.7,30.07,SE,134,2.0,8.0,71,0.00,,---,0.00,VWS V13.00,2013-08-06 14:01:00,
2013-08-06 10:06:00,81.1,70.4,30.07,SE,143,5.0,9.0,70,0.00,,---,0.00,VWS V13.00,2013-08-06 14:06:00,
2013-08-06 10:11:00,80.8,70.1,30.07,SE,124,6.0,11.0,70,0.00,,---,0.00,VWS V13.00,2013-08-06 14:11:00,
2013-08-06 10:16:00,80.5,69.8,30.07,ESE,102,8.0,11.0,70,0.00,,---,0.00,VWS V13.00,2013-08-06 14:16:00,
2013-08-06 10:21:00,80.2,69.5,30.07,SE,128,9.0,11.0,70,0.00,,---,0.00,VWS V13.00,2013-08-06 14:21:00,
2013-08-06 10:26:00,80.2,69.1,30.07,ESE,123,7.0,11.0,69,0.00,,---,0.00,VWS V13.00,2013-08-06 14:26:00,
2013-08-06 10:31:00,80.1,69.0,30.07,SE,137,7.0,11.0,69,0.00,,---,0.00,VWS V13.00,2013-08-06 14:31:00,
2013-08-06 10:36:00,80.0,68.9,30.07,SE,126,4.0,8.0,69,0.00,,---,0.00,VWS V13.00,2013-08-06 14:36:00,
2013-08-06 10:41:00,80.0,68.9,30.07,ESE,107,7.0,9.0,69,0.00,,---,0.00,VWS V13.00,2013-08-06 14:41:00,
2013-08-06 10:46:00,79.8,68.3,30.07,SE,128,7.0,11.0,68,0.00,,---,0.00,VWS V13.00,2013-08-06 14:46:00,
2013-08-06 10:51:00,80.1,69.0,30.07,SE,134,8.0,11.0,69,0.00,,---,0.00,VWS V13.00,2013-08-06 14:51:00,
2013-08-06 10:56:00,80.5,69.0,30.07,ESE,114,8.0,11.0,68,0.00,,---,0.00,VWS V13.00,2013-08-06 14:56:00,
2013-08-06 11:01:00,80.6,69.1,30.07,ESE,116,5.0,11.0,68,0.00,,---,0.00,VWS V13.00,2013-08-06 15:01:00,
2013-08-06 11:06:00,80.7,69.2,30.08,ESE,114,0.0,5.0,68,0.00,,---,0.00,VWS V13.00,2013-08-06 15:06:00,
2013-08-06 11:11:00,81.0,69.4,30.08,South,183,3.0,9.0,68,0.00,,---,0.00,VWS V13.00,2013-08-06 15:11:00,
2013-08-06 11:16:00,81.3,69.3,30.07,ESE,105,6.0,11.0,67,0.00,,---,0.00,VWS V13.00,2013-08-06 15:16:00,
2013-08-06 11:21:00,81.5,69.5,30.07,ESE,111,5.0,11.0,67,0.00,,---,0.00,VWS V13.00,2013-08-06 15:21:00,
2013-08-06 11:26:00,81.6,69.6,30.07,ESE,113,8.0,11.0,67,0.00,,---,0.00,VWS V13.00,2013-08-06 15:26:00,
2013-08-06 11:31:00,81.5,69.1,30.08,ESE,122,7.0,11.0,66,0.00,,---,0.00,VWS V13.00,2013-08-06 15:31:00,
2013-08-06 11:36:00,81.4,69.0,30.08,SE,134,2.0,8.0,66,0.00,,---,0.00,VWS V13.00,2013-08-06 15:36:00,
2013-08-06 11:41:00,81.3,68.9,30.08,South,171,4.0,8.0,66,0.00,,---,0.00,VWS V13.00,2013-08-06 15:41:00,
2013-08-06 11:46:00,81.6,69.2,30.08,ESE,117,5.0,8.0,66,0.00,,---,0.00,VWS V13.00,2013-08-06 15:46:00,
2013-08-06 11:51:00,82.1,69.6,30.08,SE,128,2.0,8.0,66,0.00,,---,0.00,VWS V13.00,2013-08-06 15:51:00,
2013-08-06 11:56:00,82.5,69.6,30.08,SSE,148,7.0,9.0,65,0.00,,---,0.00,VWS V13.00,2013-08-06 15:56:00,
2013-08-06 12:01:00,82.8,69.8,30.09,SE,124,7.0,9.0,65,0.00,,---,0.00,VWS V13.00,2013-08-06 16:01:00,
2013-08-06 12:06:00,83.0,70.0,30.09,SSE,151,0.0,9.0,65,0.00,,---,0.00,VWS V13.00,2013-08-06 16:06:00,
2013-08-06 12:11:00,83.3,69.9,30.09,SE,128,7.0,9.0,64,0.00,,---,0.00,VWS V13.00,2013-08-06 16:11:00,
2013-08-06 12:16:00,83.4,69.9,30.09,SE,126,8.0,9.0,64,0.00,,---,0.00,VWS V13.00,2013-08-06 16:16:00,
2013-08-06 12:21:00,83.1,69.7,30.09,SE,134,6.0,9.0,64,0.00,,---,0.00,VWS V13.00,2013-08-06 16:21:00,
2013-08-06 12:26:00,83.0,69.6,30.09,SE,139,4.0,9.0,64,0.00,,---,0.00,VWS V13.00,2013-08-06 16:26:00,
2013-08-06 12:31:00,83.0,69.6,30.09,SE,130,6.0,9.0,64,0.00,,---,0.00,VWS V13.00,2013-08-06 16:31:00,
2013-08-06 12:36:00,83.4,70.4,30.09,ESE,110,6.0,8.0,65,0.00,,---,0.00,VWS V13.00,2013-08-06 16:36:00,
2013-08-06 12:41:00,83.8,70.3,30.09,East,96,6.0,9.0,64,0.00,,---,0.00,VWS V13.00,2013-08-06 16:41:00,
2013-08-06 12:46:00,83.9,70.4,30.09,ESE,106,5.0,9.0,64,0.00,,---,0.00,VWS V13.00,2013-08-06 16:46:00,
2013-08-06 12:51:00,83.8,70.3,30.09,SE,125,4.0,9.0,64,0.00,,---,0.00,VWS V13.00,2013-08-06 16:51:00,
2013-08-06 12:56:00,83.5,69.6,30.09,SSE,148,7.0,9.0,63,0.00,,---,0.00,VWS V13.00,2013-08-06 16:56:00,
2013-08-06 13:01:00,83.3,69.4,30.09,ESE,117,5.0,9.0,63,0.00,,---,0.00,VWS V13.00,2013-08-06 17:01:00,
2013-08-06 13:06:00,83.0,69.1,30.08,ESE,111,5.0,6.0,63,0.00,,---,0.00,VWS V13.00,2013-08-06 17:06:00,
2013-08-06 13:11:00,82.8,69.4,30.08,SSE,155,0.0,6.0,64,0.00,,---,0.00,VWS V13.00,2013-08-06 17:11:00,
2013-08-06 13:16:00,82.9,69.5,30.08,East,94,4.0,8.0,64,0.00,,---,0.00,VWS V13.00,2013-08-06 17:16:00,
2013-08-06 13:21:00,82.8,69.4,30.09,SE,129,2.0,8.0,64,0.00,,---,0.00,VWS V13.00,2013-08-06 17:21:00,
2013-08-06 13:26:00,82.7,69.3,30.09,SE,126,6.0,9.0,64,0.00,,---,0.00,VWS V13.00,2013-08-06 17:26:00,
2013-08-06 13:27:00,82.6,69.2,30.09,ESE,113,6.0,9.0,64,0.00,,---,0.00,VWS V13.00,2013-08-06 17:27:00,
2013-08-06 13:32:00,82.5,69.1,30.09,SE,134,2.0,5.0,64,0.00,,---,0.00,VWS V13.00,2013-08-06 17:32:00,
2013-08-06 13:37:00,82.7,69.8,30.09,ESE,112,2.0,7.0,65,0.00,,---,0.00,VWS V13.00,2013-08-06 17:37:00,
2013-08-06 13:42:00,83.2,69.8,30.09,SE,125,1.0,8.0,64,0.00,,---,0.00,VWS V13.00,2013-08-06 17:42:00,
2013-08-06 13:47:00,83.4,69.9,30.09,SE,133,7.0,8.0,64,0.00,,---,0.00,VWS V13.00,2013-08-06 17:47:00,
2013-08-06 13:52:00,83.1,69.7,30.09,WSW,238,2.0,8.0,64,0.00,,---,0.00,VWS V13.00,2013-08-06 17:52:00,
2013-08-06 13:57:00,83.0,69.6,30.09,South,172,4.0,8.0,64,0.00,,---,0.00,VWS V13.00,2013-08-06 17:57:00,
2013-08-06 14:02:00,82.9,69.5,30.09,SE,140,5.0,5.0,64,0.00,,---,0.00,VWS V13.00,2013-08-06 18:02:00,
2013-08-06 14:07:00,83.1,70.1,30.09,ESE,115,4.0,8.0,65,0.00,,---,0.00,VWS V13.00,2013-08-06 18:07:00,
2013-08-06 14:12:00,83.4,70.4,30.09,ESE,121,7.0,8.0,65,0.00,,---,0.00,VWS V13.00,2013-08-06 18:12:00,
2013-08-06 14:17:00,83.5,70.1,30.09,SE,132,6.0,8.0,64,0.00,,---,0.00,VWS V13.00,2013-08-06 18:17:00,
2013-08-06 14:22:00,83.2,69.8,30.09,ESE,115,6.0,8.0,64,0.00,,---,0.00,VWS V13.00,2013-08-06 18:22:00,
2013-08-06 14:27:00,82.8,69.4,30.08,East,97,5.0,8.0,64,0.00,,---,0.00,VWS V13.00,2013-08-06 18:27:00,
2013-08-06 14:32:00,82.5,69.6,30.08,SE,129,6.0,6.0,65,0.00,,---,0.00,VWS V13.00,2013-08-06 18:32:00,
2013-08-06 14:37:00,82.3,69.4,30.08,SE,126,7.0,7.0,65,0.00,,---,0.00,VWS V13.00,2013-08-06 18:37:00,
2013-08-06 14:42:00,82.2,69.3,30.08,SE,129,4.0,8.0,65,0.00,,---,0.00,VWS V13.00,2013-08-06 18:42:00,
2013-08-06 14:47:00,82.0,69.1,30.08,SE,135,6.0,8.0,65,0.00,,---,0.00,VWS V13.00,2013-08-06 18:47:00,
2013-08-06 14:52:00,81.9,69.0,30.08,SE,126,7.0,9.0,65,0.00,,---,0.00,VWS V13.00,2013-08-06 18:52:00,
2013-08-06 14:57:00,82.1,69.2,30.08,SE,134,4.0,9.0,65,0.00,,---,0.00,VWS V13.00,2013-08-06 18:57:00,
2013-08-06 15:02:00,82.4,69.5,30.07,SE,128,2.0,4.0,65,0.00,,---,0.00,VWS V13.00,2013-08-06 19:02:00,
2013-08-06 15:07:00,82.7,69.8,30.07,ESE,112,5.0,9.0,65,0.00,,---,0.00,VWS V13.00,2013-08-06 19:07:00,
2013-08-06 15:12:00,83.0,69.6,30.07,SE,127,5.0,9.0,64,0.00,,---,0.00,VWS V13.00,2013-08-06 19:12:00,
2013-08-06 15:17:00,83.0,69.6,30.07,SE,127,1.0,9.0,64,0.00,,---,0.00,VWS V13.00,2013-08-06 19:17:00,
2013-08-06 15:22:00,82.9,69.5,30.07,SE,128,0.0,9.0,64,0.00,,---,0.00,VWS V13.00,2013-08-06 19:22:00,
2013-08-06 15:27:00,82.9,69.9,30.07,ESE,120,6.0,9.0,65,0.00,,---,0.00,VWS V13.00,2013-08-06 19:27:00,
2013-08-06 15:32:00,83.0,69.6,30.06,SSE,167,6.0,6.0,64,0.00,,---,0.00,VWS V13.00,2013-08-06 19:32:00,
2013-08-06 15:37:00,83.2,69.8,30.06,SSE,155,4.0,8.0,64,0.00,,---,0.00,VWS V13.00,2013-08-06 19:37:00,
2013-08-06 15:42:00,83.2,70.2,30.06,SE,126,1.0,8.0,65,0.00,,---,0.00,VWS V13.00,2013-08-06 19:42:00,
2013-08-06 15:47:00,83.2,70.2,30.06,SE,142,2.0,8.0,65,0.00,,---,0.00,VWS V13.00,2013-08-06 19:47:00,
2013-08-06 15:52:00,83.3,70.3,30.06,SSE,165,1.0,8.0,65,0.00,,---,0.00,VWS V13.00,2013-08-06 19:52:00,
2013-08-06 15:57:00,83.5,70.5,30.07,South,173,6.0,8.0,65,0.00,,---,0.00,VWS V13.00,2013-08-06 19:57:00,
2013-08-06 16:02:00,83.5,70.5,30.07,SSE,162,1.0,5.0,65,0.00,,---,0.00,VWS V13.00,2013-08-06 20:02:00,
2013-08-06 16:07:00,83.7,70.7,30.07,ESE,119,2.0,7.0,65,0.00,,---,0.00,VWS V13.00,2013-08-06 20:07:00,
2013-08-06 16:12:00,83.6,70.6,30.07,SSE,155,2.0,7.0,65,0.00,,---,0.00,VWS V13.00,2013-08-06 20:12:00,
2013-08-06 16:17:00,83.6,70.6,30.07,SSE,168,5.0,7.0,65,0.00,,---,0.00,VWS V13.00,2013-08-06 20:17:00,
2013-08-06 16:22:00,83.6,70.6,30.07,South,169,5.0,7.0,65,0.00,,---,0.00,VWS V13.00,2013-08-06 20:22:00,
2013-08-06 16:27:00,83.6,70.6,30.07,SSE,159,5.0,7.0,65,0.00,,---,0.00,VWS V13.00,2013-08-06 20:27:00,
2013-08-06 16:32:00,83.7,70.7,30.07,SE,136,5.0,5.0,65,0.00,,---,0.00,VWS V13.00,2013-08-06 20:32:00,
2013-08-06 16:37:00,83.7,70.7,30.08,SE,138,1.0,5.0,65,0.00,,---,0.00,VWS V13.00,2013-08-06 20:37:00,
2013-08-06 16:42:00,83.6,70.6,30.08,SSE,161,0.0,6.0,65,0.00,,---,0.00,VWS V13.00,2013-08-06 20:42:00,
2013-08-06 16:47:00,83.6,70.6,30.07,SSE,168,5.0,7.0,65,0.00,,---,0.00,VWS V13.00,2013-08-06 20:47:00,
2013-08-06 16:52:00,83.6,70.6,30.08,South,176,4.0,7.0,65,0.00,,---,0.00,VWS V13.00,2013-08-06 20:52:00,
2013-08-06 16:57:00,83.6,70.6,30.07,SE,144,0.0,7.0,65,0.00,,---,0.00,VWS V13.00,2013-08-06 20:57:00,
2013-08-06 17:02:00,83.6,70.6,30.07,SSE,165,6.0,7.0,65,0.00,,---,0.00,VWS V13.00,2013-08-06 21:02:00,
2013-08-06 17:07:00,83.7,70.7,30.07,SSE,167,2.0,7.0,65,0.00,,---,0.00,VWS V13.00,2013-08-06 21:07:00,
2013-08-06 17:12:00,83.8,70.8,30.07,South,189,2.0,7.0,65,0.00,,---,0.00,VWS V13.00,2013-08-06 21:12:00,
2013-08-06 17:17:00,83.7,70.7,30.07,SSE,151,2.0,7.0,65,0.00,,---,0.00,VWS V13.00,2013-08-06 21:17:00,
2013-08-06 17:22:00,83.6,70.6,30.07,South,184,3.0,7.0,65,0.00,,---,0.00,VWS V13.00,2013-08-06 21:22:00,
2013-08-06 17:27:00,83.5,70.5,30.07,SSE,155,6.0,7.0,65,0.00,,---,0.00,VWS V13.00,2013-08-06 21:27:00,
2013-08-06 17:32:00,83.3,70.3,30.07,ESE,117,4.0,5.0,65,0.00,,---,0.00,VWS V13.00,2013-08-06 21:32:00,
2013-08-06 17:37:00,83.2,70.2,30.07,South,187,0.0,5.0,65,0.00,,---,0.00,VWS V13.00,2013-08-06 21:37:00,
2013-08-06 17:42:00,83.2,70.2,30.07,SSE,168,1.0,5.0,65,0.00,,---,0.00,VWS V13.00,2013-08-06 21:42:00,
2013-08-06 17:47:00,82.9,69.9,30.07,SSE,147,4.0,5.0,65,0.00,,---,0.00,VWS V13.00,2013-08-06 21:47:00,
2013-08-06 17:52:00,82.8,69.8,30.07,South,181,2.0,5.0,65,0.00,,---,0.00,VWS V13.00,2013-08-06 21:52:00,
2013-08-06 17:57:00,82.6,69.7,30.07,SSW,202,3.0,5.0,65,0.00,,---,0.00,VWS V13.00,2013-08-06 21:57:00,
2013-08-06 18:02:00,82.3,69.4,30.06,SSE,162,2.0,2.0,65,0.00,,---,0.00,VWS V13.00,2013-08-06 22:02:00,
2013-08-06 18:07:00,82.1,69.2,30.06,SE,132,0.0,6.0,65,0.00,,---,0.00,VWS V13.00,2013-08-06 22:07:00,
2013-08-06 18:12:00,81.9,69.0,30.06,SSE,167,1.0,6.0,65,0.00,,---,0.00,VWS V13.00,2013-08-06 22:12:00,
2013-08-06 18:17:00,81.8,69.3,30.06,SSE,161,0.0,6.0,66,0.00,,---,0.00,VWS V13.00,2013-08-06 22:17:00,
2013-08-06 18:22:00,81.6,69.2,30.07,South,188,2.0,6.0,66,0.00,,---,0.00,VWS V13.00,2013-08-06 22:22:00,
2013-08-06 18:27:00,81.5,69.1,30.06,South,178,0.0,6.0,66,0.00,,---,0.00,VWS V13.00,2013-08-06 22:27:00,
2013-08-06 18:32:00,81.4,69.0,30.06,SSE,154,0.0,0.0,66,0.00,,---,0.00,VWS V13.00,2013-08-06 22:32:00,
2013-08-06 18:36:00,81.3,68.9,30.06,SSE,150,1.0,6.0,66,0.00,,---,0.00,VWS V13.00,2013-08-06 22:36:00,
2013-08-06 18:41:00,81.2,68.8,30.06,SSE,155,2.0,6.0,66,0.00,,---,0.00,VWS V13.00,2013-08-06 22:41:00,
2013-08-06 18:46:00,81.0,69.0,30.06,SSE,155,2.0,6.0,67,0.00,,---,0.00,VWS V13.00,2013-08-06 22:46:00,
2013-08-06 18:51:00,80.9,68.9,30.06,ESE,119,1.0,6.0,67,0.00,,---,0.00,VWS V13.00,2013-08-06 22:51:00,
2013-08-06 18:56:00,80.8,68.8,30.07,ESE,119,4.0,6.0,67,0.00,,---,0.00,VWS V13.00,2013-08-06 22:56:00,
2013-08-06 19:01:00,80.8,68.8,30.06,ESE,117,0.0,4.0,67,0.00,,---,0.00,VWS V13.00,2013-08-06 23:01:00,
2013-08-06 19:02:00,80.8,68.8,30.06,ESE,117,0.0,4.0,67,0.00,,---,0.00,VWS V13.00,2013-08-06 23:02:00,
2013-08-06 19:07:00,80.6,68.6,30.06,SE,125,4.0,6.0,67,0.00,,---,0.00,VWS V13.00,2013-08-06 23:07:00,
2013-08-06 19:12:00,80.5,68.5,30.06,SE,128,1.0,6.0,67,0.00,,---,0.00,VWS V13.00,2013-08-06 23:12:00,
2013-08-06 19:16:00,80.4,68.4,30.06,SE,128,0.0,6.0,67,0.00,,---,0.00,VWS V13.00,2013-08-06 23:16:00,
2013-08-06 19:21:00,80.3,68.3,30.06,ESE,115,5.0,6.0,67,0.00,,---,0.00,VWS V13.00,2013-08-06 23:21:00,
2013-08-06 19:26:00,80.1,68.2,30.06,ESE,117,2.0,7.0,67,0.00,,---,0.00,VWS V13.00,2013-08-06 23:26:00,
2013-08-06 19:31:00,79.9,68.4,30.06,ESE,107,2.0,5.0,68,0.00,,---,0.00,VWS V13.00,2013-08-06 23:31:00,
2013-08-06 19:36:00,79.8,68.3,30.06,SE,130,4.0,7.0,68,0.00,,---,0.00,VWS V13.00,2013-08-06 23:36:00,
2013-08-06 19:41:00,79.7,68.2,30.06,SSE,162,2.0,7.0,68,0.00,,---,0.00,VWS V13.00,2013-08-06 23:41:00,
2013-08-06 19:46:00,79.6,68.1,30.06,SE,140,5.0,8.0,68,0.00,,---,0.00,VWS V13.00,2013-08-06 23:46:00,
2013-08-06 19:51:00,79.5,68.0,30.06,ESE,111,4.0,8.0,68,0.00,,---,0.00,VWS V13.00,2013-08-06 23:51:00,
2013-08-06 19:56:00,79.4,67.9,30.07,SE,126,0.0,8.0,68,0.00,,---,0.00,VWS V13.00,2013-08-06 23:56:00,
2013-08-06 20:01:00,79.3,67.8,30.07,ESE,107,5.0,7.0,68,0.00,,---,0.00,VWS V13.00,2013-08-07 00:01:00,
2013-08-06 20:06:00,79.3,67.8,30.07,ESE,116,8.0,8.0,68,0.00,,---,0.00,VWS V13.00,2013-08-07 00:06:00,
2013-08-06 20:11:00,79.3,67.8,30.07,SE,128,6.0,9.0,68,0.00,,---,0.00,VWS V13.00,2013-08-07 00:11:00,
2013-08-06 20:16:00,79.3,68.3,30.07,East,90,4.0,9.0,69,0.00,,---,0.00,VWS V13.00,2013-08-07 00:16:00,
2013-08-06 20:21:00,79.3,68.3,30.07,SE,132,7.0,9.0,69,0.00,,---,0.00,VWS V13.00,2013-08-07 00:21:00,
2013-08-06 20:26:00,79.1,68.1,30.07,SE,129,6.0,9.0,69,0.00,,---,0.00,VWS V13.00,2013-08-07 00:26:00,
2013-08-06 20:32:00,79.0,68.0,30.08,ESE,113,4.0,4.0,69,0.00,,---,0.00,VWS V13.00,2013-08-07 00:32:00,
2013-08-06 20:37:00,78.8,67.8,30.08,ESE,120,2.0,4.0,69,0.00,,---,0.00,VWS V13.00,2013-08-07 00:37:00,
2013-08-06 20:41:00,78.7,67.7,30.08,SE,126,2.0,5.0,69,0.00,,---,0.00,VWS V13.00,2013-08-07 00:41:00,
2013-08-06 20:47:00,78.7,67.7,30.08,ESE,105,4.0,6.0,69,0.00,,---,0.00,VWS V13.00,2013-08-07 00:47:00,
2013-08-06 20:51:00,78.7,67.7,30.08,SSE,152,1.0,7.0,69,0.00,,---,0.00,VWS V13.00,2013-08-07 00:51:00,
2013-08-06 20:57:00,78.7,67.7,30.08,South,169,0.0,7.0,69,0.00,,---,0.00,VWS V13.00,2013-08-07 00:57:00,
2013-08-06 21:02:00,78.7,67.7,30.08,South,169,1.0,4.0,69,0.00,,---,0.00,VWS V13.00,2013-08-07 01:02:00,
2013-08-06 21:07:00,78.6,67.6,30.08,South,171,0.0,4.0,69,0.00,,---,0.00,VWS V13.00,2013-08-07 01:07:00,
2013-08-06 21:12:00,78.5,67.5,30.08,SSE,167,0.0,4.0,69,0.00,,---,0.00,VWS V13.00,2013-08-07 01:12:00,
2013-08-06 21:17:00,78.3,67.3,30.08,SSE,167,0.0,4.0,69,0.00,,---,0.00,VWS V13.00,2013-08-07 01:17:00,
2013-08-06 21:22:00,78.2,67.6,30.08,SSE,164,0.0,4.0,70,0.00,,---,0.00,VWS V13.00,2013-08-07 01:22:00,
2013-08-06 21:27:00,78.2,67.6,30.08,SSE,168,2.0,4.0,70,0.00,,---,0.00,VWS V13.00,2013-08-07 01:27:00,
2013-08-06 21:32:00,78.0,67.4,30.09,SSE,167,0.0,4.0,70,0.00,,---,0.00,VWS V13.00,2013-08-07 01:32:00,
2013-08-06 21:37:00,78.0,67.4,30.09,SSE,159,0.0,4.0,70,0.00,,---,0.00,VWS V13.00,2013-08-07 01:37:00,
2013-08-06 21:42:00,78.0,67.4,30.09,SSE,159,0.0,4.0,70,0.00,,---,0.00,VWS V13.00,2013-08-07 01:42:00,
2013-08-06 21:47:00,78.0,67.4,30.09,SSE,157,0.0,4.0,70,0.00,,---,0.00,VWS V13.00,2013-08-07 01:47:00,
2013-08-06 21:52:00,78.0,67.4,30.09,SSE,157,2.0,7.0,70,0.00,,---,0.00,VWS V13.00,2013-08-07 01:52:00,
2013-08-06 21:57:00,78.3,67.7,30.09,South,172,5.0,7.0,70,0.00,,---,0.00,VWS V13.00,2013-08-07 01:57:00,
2013-08-06 22:02:00,78.5,67.9,30.09,SSW,207,4.0,4.0,70,0.00,,---,0.00,VWS V13.00,2013-08-07 02:02:00,
2013-08-06 22:07:00,78.7,68.1,30.09,SW,218,1.0,5.0,70,0.00,,---,0.00,VWS V13.00,2013-08-07 02:07:00,
2013-08-06 22:12:00,78.7,68.1,30.09,SW,235,0.0,5.0,70,0.00,,---,0.00,VWS V13.00,2013-08-07 02:12:00,
2013-08-06 22:17:00,78.7,68.1,30.09,SW,234,0.0,5.0,70,0.00,,---,0.00,VWS V13.00,2013-08-07 02:17:00,
2013-08-06 22:22:00,78.7,68.1,30.09,SW,234,0.0,5.0,70,0.00,,---,0.00,VWS V13.00,2013-08-07 02:22:00,
2013-08-06 22:27:00,78.7,68.1,30.09,SW,234,0.0,5.0,70,0.00,,---,0.00,VWS V13.00,2013-08-07 02:27:00,
2013-08-06 22:32:00,78.6,68.4,30.09,SW,234,0.0,0.0,71,0.00,,---,0.00,VWS V13.00,2013-08-07 02:32:00,
2013-08-06 22:37:00,78.5,68.3,30.09,South,175,0.0,2.0,71,0.00,,---,0.00,VWS V13.00,2013-08-07 02:37:00,
2013-08-06 22:42:00,78.4,68.2,30.09,SSE,150,2.0,4.0,71,0.00,,---,0.00,VWS V13.00,2013-08-07 02:42:00,
2013-08-06 22:47:00,78.4,68.2,30.09,ESE,116,0.0,8.0,71,0.00,,---,0.00,VWS V13.00,2013-08-07 02:47:00,
2013-08-06 22:52:00,78.4,68.2,30.09,SE,126,5.0,10.0,71,0.00,,---,0.00,VWS V13.00,2013-08-07 02:52:00,
2013-08-06 22:57:00,78.4,68.2,30.09,SE,127,2.0,10.0,71,0.00,,---,0.00,VWS V13.00,2013-08-07 02:57:00,
2013-08-06 23:02:00,78.5,68.3,30.09,SE,129,2.0,2.0,71,0.00,,---,0.00,VWS V13.00,2013-08-07 03:02:00,
2013-08-06 23:07:00,78.5,68.3,30.09,SE,128,5.0,8.0,71,0.00,,---,0.00,VWS V13.00,2013-08-07 03:07:00,
2013-08-06 23:12:00,78.4,68.2,30.09,SSE,150,2.0,8.0,71,0.00,,---,0.00,VWS V13.00,2013-08-07 03:12:00,
2013-08-06 23:17:00,78.4,68.2,30.09,SE,126,4.0,8.0,71,0.00,,---,0.00,VWS V13.00,2013-08-07 03:17:00,
2013-08-06 23:22:00,78.3,68.1,30.09,SE,140,4.0,8.0,71,0.00,,---,0.00,VWS V13.00,2013-08-07 03:22:00,
2013-08-06 23:27:00,78.3,68.1,30.09,SSE,161,0.0,8.0,71,0.00,,---,0.00,VWS V13.00,2013-08-07 03:27:00,
2013-08-06 23:32:00,78.2,68.0,30.09,ESE,109,1.0,6.0,71,0.00,,---,0.00,VWS V13.00,2013-08-07 03:32:00,
2013-08-06 23:37:00,78.2,68.0,30.09,ESE,115,4.0,7.0,71,0.00,,---,0.00,VWS V13.00,2013-08-07 03:37:00,
2013-08-06 23:42:00,78.1,67.9,30.09,SE,134,4.0,10.0,71,0.00,,---,0.00,VWS V13.00,2013-08-07 03:42:00,
2013-08-06 23:47:00,78.0,67.8,30.09,ESE,121,5.0,10.0,71,0.00,,---,0.00,VWS V13.00,2013-08-07 03:47:00,
2013-08-06 23:52:00,77.9,67.8,30.09,SE,136,7.0,10.0,71,0.00,,---,0.00,VWS V13.00,2013-08-07 03:52:00,
2013-08-06 23:57:00,77.9,67.8,30.09,SE,135,5.0,10.0,71,0.00,,---,0.00,VWS V13.00,2013-08-07 03:57:00,